sat.trackr.live / text

‹ back to catalog

CUPID

NORAD 49264 · 2021-088E

PAYLOAD ACTIVE UNKNOWN

§ Identity

Operator
Country
US
Launch date
2021-09-27
Launch site
AFWTR
Launch vehicle
Mass (kg)
RCS (m²)

External: N2YO · Heavens-Above · Gunter

§ Orbital elements

Epoch: 2026-09-20T21:22:19.600032Z

Period
94.29 min
Inclination
97.3770°
Eccentricity
0.0013325
Mean motion
15.27157845 rev/d
Perigee alt
475.2 km
Apogee alt
493.5 km
Semi-major
6,862.5 km
B*
1.7263e-4
RAAN
323.9937°
Arg perigee
87.4791°
Mean anomaly
272.7973°
Rev number
27,478

§ Raw data

CUPID1 49264U 21088E   26263.89050463  .00004533  00000+0  17263-3 0  99942 49264  97.3770 323.9937 0013325  87.4791 272.7973 15.27157845274786

JSON: /api/v1/satellites/49264 · /tle

For live sub-satellite position, see the globe view (requires WebGL).

§ Visibility from observer

Set your observer location to see the next 7 days of passes ≥ 10°. The values pass through the URL so the page stays shareable.

No JS? Fill the form by hand. The geolocation button needs JavaScript.